Location: Courcelles
(49.2596°N, 1.7419°E)
Time: 22:58:50
(UTC+00:00)

RESURS DK-1 - Pass Details

Date: 17 November 2025
Orbit: 524 x 535 km, 69.9° (Epoch: 04 December)

Event Time Altitude Azimuth Distance (km) Brightness Sun altitude
Rises 17:02:25 0° 332° (NNW) 2,700 6.0 -8.8°
Reaches altitude 10° 17:04:39 10° 337° (NNW) 1,804 5.0 -9.2°
Maximum altitude 17:08:36 55° 56° (NE) 649 2.3 -9.8°
Drops below altitude 10° 17:12:32 10° 135° (SE) 1,789 4.7 -10.4°
Sets 17:14:44 0° 140° (SE) 2,675 5.6 -10.7°
